SL-14 DEB, 45268

Orbit data source: Space-Track

SL-14 DEB, 45268 is space debris in LEO originally from a launch on Thu, 15 Aug 1991 UTC launched from the Plesetsk Missile And Space Complex (PKMTR). Debris objects in space refer to the collection of defunct objects orbiting the Earth. Examples of debris include non-operational satellites, rocket bodies, and fragments generated from explosions, collisions, or faulty payload assembly.

Loading next visibility...
Identifier
45268, 1991-056E
Orbit
LEO
Country
Flag of CISCIS
Related business
Manufacturer
Unknown
Mission
Spacecraft
Bus & Motor
Unknown
Mass
Unknown
Launch date (UTC)
1991-08-15 (35 years ago)
Launch vehicle
Unknown
Launch site
Plesetsk Missile And Space Complex (PKMTR)
Object type
Payload
Rocket body
Debris
Shape & HBR
Unknown shape, 0.4 m
Radar Cross Section
Medium (>0.1 m² and <1 m²)

Expand to show TLE details & history
Last TLE update: 2 days ago

TLE from 2 days ago
0 SL-14 DEB
1 45268U 91056E   26171.38256834  .00000116  00000-0  27491-3 0  9996
2 45268  82.5555 141.0850 0009455 186.5118 173.5882 13.15672208304982
Epoch: 2026-06-20T09:10Z
TLE epoch observation values (Epoch: 2026-06-20T09:10:53.904Z)
Latitude
-0.00005°
Longitude
94.7624°
Altitude
1,211.224 km
Speed
7.245 km/s
True Right ascension
09h 24m 20s
True Declination
0° 00' 00"
Sunlit
Object was in daylight at epoch
Visualization orbit readout
Latitude
Unknown
Longitude
Unknown
Altitude
Unknown
Speed
Unknown
Apparent Right ascension
Unknown
Apparent Declination
Unknown
Sunlit
N/A
Visualization observer readout
Local Sidereal Time
21:41:59
Azimuth
Unknown
Elevation
Unknown
Doppler factor
Unknown
Orbital elements
Apogee altitude
1,205.706 km
Perigee altitude
1,191.378 km
Semi-major axis
7,576.679 km
Eccentricity
0.00095
Inclination
82.5555°
RAAN
141.085°
Arg. of periapsis
186.5118°
True anomaly
173.60029°
Mean anomaly
173.5882°
Eccentric anomaly
173.59424°
Mean motion
3.29098 °/min
Orbital period
109.39 mins
BSTAR
0.00027491
Loading maneuver chart data...
Computing Atmospheric mass density...
Loading historical data...
Loading historical data...
Loading historical data...
Loading historical data...
Loading historical data...
Loading historical data...
Loading historical data...

Documentation

Showing up to 5 results
|